This is the latest recevied weather packets stored in our database for station/object WK7G. If no packets are shown the sender has not sent any weather packets the latest 10 day(s).
| Time | Temp. | Humidity | Pressure | Rain* | Wind** | Luminosity | Snow |
|---|---|---|---|---|---|---|---|
| 1777671043 | 16.11° C | 24% | 1014.3 hPa | 0 mm | - | 621 W/m² | - |
| 1777670740 | 16.11° C | 26% | 1014.5 hPa | 0 mm | - | 650 W/m² | - |
| 1777670437 | 15.56° C | 26% | 1014.6 hPa | 0 mm | - | 645 W/m² | - |
| 1777670133 | 16.11° C | 26% | 1014.3 hPa | 0 mm | - | 654 W/m² | - |
| 1777669832 | 15.56° C | 24% | 1014.2 hPa | 0 mm | - | 670 W/m² | - |
| 1777669227 | 15.56° C | 24% | 1014.7 hPa | 0 mm | - | 667 W/m² | - |
| 1777668921 | 15.56° C | 25% | 1014.2 hPa | 0 mm | - | 661 W/m² | - |
| 1777667708 | 15° C | 28% | 1014.6 hPa | 0 mm | - | 690 W/m² | - |
| 1777662859 | 13.89° C | 28% | 1015.1 hPa | 0 mm | - | 832 W/m² | - |
| 1777662252 | 12.78° C | 28% | 1014.9 hPa | 0 mm | - | 830 W/m² | - |
| 1777661952 | 12.78° C | 29% | 1015.3 hPa | 0 mm | - | 849 W/m² | - |
| 1777660735 | 13.33° C | 35% | 1015.3 hPa | 0 mm | - | 907 W/m² | - |
| 1777660129 | 12.78° C | 35% | 1015.4 hPa | 0 mm | - | 925 W/m² | - |
| 1777659826 | 12.22° C | 32% | 1015.5 hPa | 0 mm | - | 874 W/m² | - |
| 1777659523 | 12.22° C | 35% | 1015.8 hPa | 0 mm | - | 882 W/m² | - |
| 1777658917 | 11.67° C | 35% | 1015.5 hPa | 0 mm | - | 900 W/m² | - |
| 1777658613 | 12.78° C | 36% | 1015.7 hPa | 0 mm | - | 913 W/m² | - |
| 1777658007 | 12.22° C | 34% | 1015.8 hPa | 0 mm | - | 878 W/m² | - |
| 1777657100 | 11.67° C | 36% | 1015.7 hPa | 0 mm | - | 832 W/m² | - |
| 1777656187 | 11.11° C | 35% | 1015.7 hPa | 0 mm | - | 869 W/m² | - |
| 1777654067 | 10.56° C | 37% | 1015.9 hPa | 0 mm | - | 836 W/m² | - |
| 1777653459 | 10° C | 40% | 1015.9 hPa | 0 mm | - | 799 W/m² | - |
| 1777653157 | 10° C | 44% | 1015.9 hPa | 0 mm | - | 796 W/m² | - |
| 1777652852 | 10° C | 45% | 1015.9 hPa | 0 mm | - | 773 W/m² | - |
| 1777652549 | 10° C | 43% | 1015.8 hPa | 0 mm | - | 776 W/m² | - |
* Rain latest hour (hover to see other rain measurements)
** Current wind speed in m/s (hover to see current wind gust speed)